DC1NF-7 Weather Reports


time (UTC)temp
F
wind
direction
speed
knots
gust
knots
rain 1hr
in
rain 24hr
in
rain mn
in
humidity
%
barometer
mb
20260506143608 66 239 0.9 3.5 0.00 0.27 0.00 57 1005.3
20260506142603 66 238 0.9 1.7 0.00 0.27 0.00 57 1005.5
20260506141559 67 218 0.9 3.5 0.00 0.27 0.00 56 1005.4
20260506140551 66 250 1.7 3.5 0.00 0.27 0.00 58 1005.6
20260506135550 65 211 0.9 1.7 0.00 0.27 0.00 58 1005.5
20260506134543 65 235 0.9 3.5 0.00 0.27 0.00 60 1005.5
20260506133539 66 218 2.6 3.5 0.00 0.27 0.00 58 1005.7
20260506132544 66 227 1.7 5.2 0.00 0.27 0.00 57 1005.8
20260506131537 66 205 2.6 5.2 0.00 0.27 0.00 58 1005.7
20260506130529 66 178 2.6 7.8 0.00 0.27 0.00 57 1005.7
20260506125525 66 183 2.6 5.2 0.00 0.27 0.00 56 1005.9
20260506124520 66 207 0.9 3.5 0.00 0.27 0.00 57 1005.9
20260506123517 67 191 1.7 5.2 0.00 0.27 0.00 56 1005.9
20260506122614 67 163 3.5 7.0 0.00 0.27 0.00 56 1006.0
20260506121614 68 241 1.7 7.0 0.00 0.27 0.00 56 1006.0
20260506120611 66 181 3.5 7.8 0.00 0.27 0.00 59 1006.1
20260506115605 66 176 0.9 5.2 0.00 0.27 0.00 60 1006.1
20260506114605 67 189 1.7 3.5 0.00 0.27 0.00 57 1006.2
20260506113601 66 193 1.7 5.2 0.00 0.27 0.00 60 1006.2
20260506112557 65 184 2.6 3.5 0.00 0.27 0.00 59 1006.2
20260506111549 66 188 1.7 7.8 0.00 0.27 0.00 58 1006.3
20260506110546 66 192 0.9 3.5 0.00 0.27 0.00 61 1006.5
20260506105546 65 83 0.9 3.5 0.00 0.27 0.00 60 1006.5
20260506104542 64 150 1.7 5.2 0.00 0.27 0.00 62 1006.4
20260506103535 65 200 1.7 1.7 0.00 0.27 0.00 61 1006.5
20260506102531 64 245 2.6 5.2 0.00 0.27 0.00 63 1006.7
20260506101530 64 199 1.7 6.1 0.00 0.27 0.00 63 1006.7
20260506100523 64 225 0.9 3.5 0.00 0.27 0.00 65 1006.8
20260506095518 63 179 1.7 5.2 0.00 0.27 0.00 68 1006.8
20260506094617 63 183 3.5 9.6 0.00 0.27 0.00 67 1006.7
20260506093611 63 187 1.7 7.8 0.00 0.27 0.00 67 1006.8
20260506092608 62 248 1.7 3.5 0.00 0.27 0.00 69 1006.8
20260506091608 62 219 0.9 3.5 0.00 0.27 0.00 72 1006.7
20260506090603 61 236 1.7 5.2 0.00 0.27 0.00 72 1007.0
20260506085556 61 215 1.7 3.5 0.00 0.27 0.00 75 1007.0
20260506084552 62 216 2.6 6.1 0.00 0.27 0.00 73 1006.8
20260506083551 62 201 1.7 5.2 0.00 0.27 0.00 74 1006.9
20260506082548 62 158 0.0 3.5 0.00 0.27 0.00 75 1006.9
20260506081542 60 187 1.7 3.5 0.00 0.27 0.00 78 1006.9
20260506080539 58 232 2.6 5.2 0.00 0.27 0.00 82 1006.8
20260506073529 58 174 1.7 5.2 0.00 0.27 0.00 83 1006.7
20260506072525 57 184 2.6 3.5 0.00 0.27 0.00 85 1006.7
20260506071523 58 201 2.6 6.1 0.00 0.27 0.00 83 1006.7
20260506070517 58 180 2.6 3.5 0.00 0.27 0.00 83 1006.6
20260506061558 56 178 0.9 3.5 0.00 0.27 0.00 88 1006.6
20260506060554 56 180 0.9 3.5 0.00 0.27 0.00 88 1006.6
20260506050532 54 0.0 0.0 0.00 0.27 0.00 92 1007.2
20260506044524 52 0.0 0.0 0.00 0.27 0.00 96 1007.0
20260506043520 52 0.0 0.0 0.00 0.27 0.00 97 1007.0
20260506042517 51 0.0 0.0 0.00 0.27 0.00 97 1007.0
20260506041617 52 0.0 0.0 0.00 0.27 0.00 97 1007.0
20260506040614 52 0.0 0.0 0.00 0.27 0.00 97 1007.0
20260506035608 52 203 0.0 1.7 0.00 0.27 0.00 97 1006.9
20260506034612 52 0.0 1.7 0.00 0.27 0.00 97 1006.8
20260506033604 52 196 0.9 1.7 0.00 0.27 0.00 97 1007.0
20260506032557 52 180 2.6 3.5 0.00 0.27 0.00 96 1006.9
20260506031552 52 183 1.7 3.5 0.00 0.27 0.00 97 1007.0
20260506030549 52 187 0.9 1.7 0.00 0.27 0.00 97 1007.0
20260506025549 52 180 1.7 3.5 0.00 0.27 0.00 97 1007.0
20260506024542 52 180 1.7 3.5 0.00 0.27 0.00 96 1007.0
20260506023538 52 198 0.9 3.5 0.00 0.27 0.00 97 1007.2
20260506022534 52 248 0.0 1.7 0.00 0.27 0.00 96 1007.0
20260506021530 53 0.0 0.0 0.00 0.27 0.00 96 1006.9
20260506020525 53 222 0.9 3.5 0.00 0.27 0.00 96 1006.9
20260506015524 53 196 0.9 3.5 0.00 0.27 0.00 96 1006.8
20260506014517 53 200 0.9 3.5 0.00 0.27 0.00 96 1007.0
20260506013614 53 184 1.7 3.5 0.00 0.27 0.00 96 1007.1
20260506012611 53 182 1.7 3.5 0.00 0.27 0.00 96 1007.2
20260506011608 53 184 3.5 6.1 0.00 0.27 0.00 96 1007.3
20260506010604 53 206 0.9 3.5 0.00 0.27 0.00 96 1007.2
20260506005600 53 193 0.9 1.7 0.00 0.27 0.00 96 1007.2
20260506004555 53 0.0 1.7 0.00 0.27 0.00 96 1007.2
20260506003552 53 270 0.0 1.7 0.00 0.27 0.00 96 1007.3
20260506002552 53 205 0.9 1.7 0.00 0.27 0.00 96 1007.5
20260506001545 53 190 0.9 3.5 0.00 0.27 0.00 96 1007.4
20260506000542 53 180 0.9 1.7 0.00 0.27 0.00 96 1007.7
20260505235543 53 180 0.9 1.7 0.00 0.27 0.00 96 1007.6
20260505234536 53 187 1.7 3.5 0.00 0.27 0.00 96 1007.8
20260505233532 53 184 1.7 3.5 0.00 0.27 0.00 96 1007.7
20260505232528 53 184 1.7 3.5 0.00 0.27 0.00 97 1007.7
20260505231524 53 191 1.7 3.5 0.00 0.27 0.00 97 1007.8
20260505230520 54 225 0.9 1.7 0.00 0.27 0.00 96 1007.9
20260505225517 54 194 1.7 3.5 0.00 0.27 0.00 96 1007.9
20260505224614 54 244 1.7 3.5 0.00 0.27 0.00 96 1007.9
20260505223610 54 188 1.7 3.5 0.00 0.27 0.00 96 1008.0
20260505222606 54 228 1.7 5.2 0.00 0.27 0.00 96 1007.9
20260505221610 54 196 1.7 5.2 0.00 0.27 0.00 96 1008.0
20260505220558 54 185 2.6 5.2 0.00 0.27 0.00 96 1007.8
20260505215553 54 196 0.9 3.5 0.00 0.27 0.27 95 1007.9
20260505214552 54 212 0.9 3.5 0.00 0.27 0.27 95 1008.1
20260505213545 54 182 0.9 3.5 0.00 0.27 0.27 95 1008.1
20260505212542 54 198 1.7 3.5 0.00 0.27 0.27 95 1008.1
20260505211539 55 231 0.9 1.7 0.00 0.27 0.27 94 1007.8
20260505210538 54 210 0.9 3.5 0.00 0.27 0.27 95 1007.9
20260505205531 55 248 0.0 1.7 0.00 0.27 0.27 95 1007.8
20260505204529 55 248 0.0 1.7 0.00 0.27 0.27 95 1007.6
20260505203523 55 180 1.7 3.5 0.00 0.27 0.27 95 1007.8
20260505202523 56 202 1.7 3.5 0.00 0.27 0.27 95 1007.5
20260505201520 56 179 2.6 3.5 0.00 0.27 0.27 95 1007.6
20260505200614 56 213 0.9 1.7 0.00 0.27 0.27 95 1007.5
20260505195611 56 180 1.7 3.5 0.00 0.27 0.27 95 1007.6
20260505194607 56 180 0.9 1.7 0.00 0.27 0.27 95 1007.6
20260505193604 56 191 1.7 1.7 0.00 0.27 0.27 94 1007.5
20260505192559 56 222 0.9 3.5 0.00 0.27 0.27 93 1007.4
20260505191555 57 258 1.7 3.5 0.00 0.27 0.27 94 1007.3
20260505190552 57 243 1.7 3.5 0.00 0.27 0.27 94 1007.2
20260505185549 57 250 1.7 3.5 0.00 0.27 0.27 94 1007.2
20260505184545 57 226 1.7 3.5 0.00 0.27 0.27 94 1007.1
20260505183541 57 237 1.7 3.5 0.00 0.27 0.27 94 1007.2
20260505182537 57 237 0.9 3.5 0.00 0.27 0.27 94 1007.1
20260505181536 57 235 1.7 3.5 0.00 0.27 0.27 94 1007.1
20260505180529 57 218 1.7 3.5 0.00 0.27 0.27 94 1007.2
20260505175527 57 217 2.6 5.2 0.00 0.27 0.27 93 1007.1
20260505174520 57 255 1.7 5.2 0.00 0.27 0.27 93 1007.0
20260505173517 57 226 2.6 5.2 0.00 0.27 0.27 93 1006.9
20260505172614 57 230 3.5 6.1 0.00 0.27 0.27 92 1006.8
20260505171611 57 198 2.6 6.1 0.02 0.27 0.27 92 1006.7
20260505170610 57 241 2.6 5.2 0.05 0.27 0.27 92 1006.7
20260505165605 57 233 1.7 6.1 0.14 0.27 0.27 93 1006.7
20260505164559 57 229 2.6 6.1 0.25 0.27 0.27 93 1006.9
20260505163555 56 229 4.3 7.8 0.27 0.27 0.27 94 1006.8
20260505162552 56 226 5.2 9.6 0.27 0.27 0.27 93 1007.0
20260505161552 57 222 5.2 12.2 0.25 0.25 0.25 93 1007.3
20260505160548 57 240 6.1 12.2 0.22 0.22 0.22 93 1007.5
20260505152531 69 242 2.6 3.5 0.00 0.00 0.00 61 1005.9
20260505151529 70 240 3.5 6.1 0.00 0.00 0.00 57 1005.5
20260505150526 71 229 0.9 5.2 0.00 0.00 0.00 53 1005.5